N2DJ Weather Reports


Display with metric or nautical units.
time (UTC)temp
F
wind
direction
speed
MPH
gust
MPH
rain 1hr
in
rain 24hr
in
rain mn
in
humidity
%
barometer
mb
20260902191538 82 277 2.0 8.0 0.00 0.77 0.77 84 1013.9
20260902190037 82 192 3.0 13.0 0.00 0.77 0.77 82 1014.0
20260902184537 83 273 4.0 9.0 0.00 0.77 0.77 82 1014.0
20260902183038 82 197 1.0 10.0 0.00 0.77 0.77 86 1014.0
20260902181531 81 255 2.0 9.0 0.00 0.77 0.77 87 1014.1
20260902180027 79 153 2.0 6.0 0.00 0.77 0.77 88 1013.9
20260902174525 78 192 0.0 5.0 0.00 0.77 0.77 91 1014.1
20260902173025 76 176 1.0 6.0 0.00 0.77 0.77 93 1014.5
20260902171523 75 196 0.0 8.0 0.00 0.77 0.77 92 1014.9
20260902170023 76 181 1.0 3.0 0.00 0.77 0.77 90 1014.9
20260902164523 77 211 1.0 8.0 0.00 0.77 0.77 88 1016.1
20260902163024 78 342 0.0 7.0 0.00 0.77 0.77 88 1015.3
20260902161523 77 188 3.0 10.0 0.00 0.77 0.77 88 1014.7
20260902160020 78 232 1.0 8.0 0.00 0.77 0.77 88 1014.8
20260902154521 78 248 2.0 8.0 0.00 0.77 0.77 91 1015.0
20260902153036 76 211 2.0 9.0 0.00 0.77 0.77 96 1014.9
20260902151508 74 157 3.0 10.0 0.00 0.77 0.77 99 1015.2
20260902150003 73 263 2.0 7.0 0.00 0.77 0.77 100 1015.5
20260902144600 72 227 2.0 5.0 0.00 0.77 0.77 100 1015.6
20260902143059 70 148 1.0 6.0 0.00 0.77 0.77 100 1015.9
20260902141555 69 115 1.0 4.0 0.00 0.77 0.77 99 1016.1
20260902140056 69 132 1.0 3.0 0.00 0.77 0.77 99 1016.2
20260902134557 69 163 1.0 3.0 0.00 0.77 0.77 99 1016.1
20260902133056 70 163 2.0 4.0 0.01 0.77 0.77 99 1016.0
20260902131555 69 155 1.0 5.0 0.35 0.77 0.77 99 1015.8
20260902130051 69 86 0.0 2.0 0.72 0.77 0.77 99 1016.2
20260902124551 68 86 0.0 2.0 0.72 0.77 0.77 99 1016.5
20260902123057 68 44 1.0 7.0 0.72 0.76 0.76 99 1016.5
20260902121548 69 23 6.0 20.0 0.20 0.20 0.20 98 1016.5
20260902120046 69 56 6.0 20.0 0.05 0.05 0.05 98 1015.9
20260902114544 72 351 1.0 3.0 0.05 0.05 0.05 99 1014.8
20260902113038 72 163 0.0 4.0 0.04 0.04 0.04 100 1014.0
20260902111534 71 192 0.0 4.0 0.00 0.00 0.00 100 1013.8
20260902110040 71 186 0.0 5.0 0.00 0.00 0.00 99 1014.0
20260902104527 71 182 1.0 5.0 0.00 0.00 0.00 99 1013.3
20260902103024 71 179 1.0 5.0 0.00 0.00 0.00 99 1013.5
20260902101527 71 179 0.0 2.0 0.00 0.00 0.00 100 1013.5
20260902100021 71 181 1.0 4.0 0.00 0.00 0.00 99 1013.3
20260902094523 71 156 0.0 2.0 0.00 0.00 0.00 99 1013.7
20260902093029 71 156 0.0 2.0 0.00 0.00 0.00 99 1014.2
20260902091517 71 156 0.0 5.0 0.00 0.00 0.00 99 1014.1
20260902090015 71 196 0.0 2.0 0.00 0.00 0.00 99 1014.1
20260902084518 71 200 0.0 4.0 0.00 0.02 0.00 99 1014.3
20260902083006 71 157 1.0 6.0 0.00 0.02 0.00 99 1014.3
20260902081503 70 163 1.0 3.0 0.00 0.02 0.00 99 1014.7
20260902080002 70 146 0.0 2.0 0.00 0.03 0.00 99 1015.1
20260902074501 70 146 0.0 0.0 0.00 0.03 0.00 99 1014.8
20260902073200 69 146 0.0 1.0 0.00 0.03 0.00 99 1014.9
20260902071559 69 140 0.0 0.0 0.00 0.03 0.00 99 1015.1
20260902070059 69 140 0.0 0.0 0.00 0.03 0.00 99 1015.4
20260902064559 70 140 0.0 0.0 0.00 0.03 0.00 99 1015.3
20260902063059 70 140 0.0 0.0 0.00 0.03 0.00 99 1015.3
20260902060101 70 140 0.0 0.0 0.00 0.03 0.00 99 1015.3
20260902054611 70 140 0.0 3.0 0.00 0.03 0.00 99 1015.5
20260902053104 70 139 1.0 3.0 0.00 0.03 0.00 99 1015.2
20260902051554 69 204 0.0 1.0 0.00 0.03 0.00 99 1015.3
20260902050055 69 204 0.0 0.0 0.00 0.03 0.00 98 1015.4
20260902044553 69 204 0.0 0.0 0.00 0.04 0.00 98 1015.2
20260902043049 69 204 0.0 0.0 0.00 0.04 0.00 98 1015.3
20260902041548 70 204 0.0 0.0 0.00 0.04 0.00 98 1015.1
20260902040049 70 204 0.0 0.0 0.00 0.04 0.00 98 1015.0
20260902034544 70 204 0.0 0.0 0.00 0.04 0.04 98 1015.0
20260902033043 71 204 0.0 0.0 0.00 0.04 0.04 98 1015.1
20260902031545 71 204 0.0 0.0 0.00 0.04 0.04 98 1014.9
20260902030042 72 204 0.0 0.0 0.00 0.04 0.04 98 1014.9
20260902024543 72 204 0.0 0.0 0.00 0.04 0.04 98 1015.0
20260902023050 72 204 0.0 0.0 0.00 0.04 0.04 98 1015.0
20260902021541 72 204 0.0 0.0 0.00 0.04 0.04 97 1015.1
20260902020040 72 207 0.0 1.0 0.00 0.04 0.04 97 1015.1
20260902014540 72 207 0.0 0.0 0.00 0.08 0.04 97 1015.0
20260902013048 72 207 0.0 0.0 0.00 0.08 0.04 96 1015.0
20260902011539 73 207 0.0 1.0 0.00 0.08 0.04 96 1014.9
20260902010039 73 207 0.0 0.0 0.00 0.08 0.04 96 1014.8
20260902004538 73 207 0.0 0.0 0.00 0.08 0.04 95 1014.5
20260902003040 74 207 0.0 0.0 0.00 0.08 0.04 95 1014.4
20260902001553 75 207 0.0 0.0 0.00 0.08 0.04 94 1014.1
20260902000040 75 207 0.0 0.0 0.00 0.08 0.04 93 1014.0
20260901234536 77 207 0.0 0.0 0.00 0.08 0.04 91 1014.0
20260901233037 78 207 0.0 0.0 0.00 0.08 0.04 89 1013.9
20260901231538 79 207 0.0 0.0 0.00 0.08 0.04 87 1014.1
20260901230036 80 205 0.0 3.0 0.00 0.08 0.04 87 1014.3
20260901224534 80 253 0.0 1.0 0.00 0.08 0.04 87 1014.3
20260901223036 81 254 0.0 3.0 0.00 0.08 0.04 85 1014.4
20260901221540 82 223 0.0 4.0 0.00 0.08 0.04 83 1014.4
20260901220032 83 209 1.0 5.0 0.00 0.08 0.04 81 1014.2
20260901214532 84 262 0.0 2.0 0.00 0.08 0.04 80 1014.3
20260901213030 84 246 1.0 4.0 0.00 0.08 0.04 80 1014.3
20260901211529 83 198 1.0 3.0 0.00 0.08 0.04 80 1014.2
20260901210029 82 135 1.0 3.0 0.00 0.08 0.04 83 1014.1
20260901204529 82 221 0.0 4.0 0.00 0.08 0.04 83 1014.2
20260901203028 83 193 1.0 4.0 0.00 0.08 0.04 82 1014.3
20260901201526 82 208 0.0 3.0 0.00 0.08 0.04 84 1014.3
20260901200025 82 355 0.0 1.0 0.00 0.08 0.04 84 1014.6
20260901194524 82 360 1.0 3.0 0.00 0.10 0.04 83 1014.6
20260901193026 82 347 0.0 3.0 0.00 0.10 0.04 84 1014.5